Location: Newark
(52.8300°N, 8.0000°E)
Time: 06:16:41
(UTC+00:00)

STARLINK-1088 - Pass Details

Date: 30 January 2020
Orbit: 345 x 354 km, 53.0° (Epoch: 23 February)

Event Time Altitude Azimuth Distance (km) Brightness Sun altitude
Rises 17:59:51 0° 283° (WNW) 2,192 8.0 -16.8°
Reaches altitude 10° 18:02:05 10° 270° (W) 1,343 6.9 -17.1°
Maximum altitude 18:04:36 25° 212° (SSW) 780 4.8 -17.5°
Enters shadow 18:06:14 16° 166° (SSE) 1,053 5.0 -17.7°
